DW0218 Weather Reports


time (UTC)temp
C
wind
direction
speed
KPH
gust
KPH
rain 1hr
cm
rain 24hr
cm
rain mn
cm
humidity
%
barometer
mb
20260505111805 15 2 3.2 8.0 0.00 0.46 0.00 65 1012.0
20260505110805 15 0 3.2 8.0 0.00 0.46 0.00 65 1011.0
20260505101805 15 358 3.2 8.0 0.00 0.46 0.00 70 1012.0
20260505100805 15 0 3.2 4.8 0.00 0.46 0.00 69 1012.0
20260505094805 14 16 0.0 8.0 0.00 0.46 0.00 73 1012.0
20260505092805 13 355 3.2 8.0 0.00 0.46 0.00 77 1012.0
20260505091805 14 0 1.6 4.8 0.00 0.46 0.00 72 1012.0
20260505085806 13 341 1.6 4.8 0.00 0.46 0.00 80 1013.0
20260505083805 13 334 3.2 8.0 0.00 0.46 0.00 81 1012.0
20260505082805 14 352 1.6 8.0 0.00 0.46 0.00 77 1013.0
20260505081805 13 8 0.0 8.0 0.00 0.46 0.00 80 1013.0
20260505075805 12 31 1.6 4.8 0.00 0.46 0.00 87 1012.0
20260505074805 12 0 0.0 4.8 0.00 0.46 0.00 91 1012.0
20260505073805 12 348 0.0 4.8 0.00 0.46 0.00 97 1012.0
20260505072805 11 0 1.6 3.2 0.00 0.46 0.00 98 1012.0
20260505065805 10 0 0.0 3.2 0.00 0.46 0.00 98 1013.0
20260505063805 10 0 0.0 3.2 0.00 0.46 0.00 98 1013.0
20260505062805 9 0 1.6 4.8 0.00 0.46 0.00 98 1013.0
20260505061805 9 0 0.0 4.8 0.00 0.46 0.00 98 1013.0
20260505055806 9 0 0.0 3.2 0.00 0.46 0.00 98 1013.0
20260505054805 9 0 0.0 3.2 0.00 0.46 0.00 98 1013.0
20260505053805 9 0 0.0 3.2 0.00 0.46 0.00 98 1013.0
20260505035805 10 45 0.0 1.6 0.00 0.46 0.00 98 1013.0
20260505032805 10 45 0.0 3.2 0.00 0.46 0.00 98 1013.0
20260505031805 10 45 0.0 0.0 0.00 0.46 0.00 98 1013.0
20260505030806 10 45 0.0 0.0 0.00 0.46 0.00 98 1013.0
20260505023805 11 26 0.0 3.2 0.00 0.46 0.00 98 1013.0
20260505022806 11 22 0.0 1.6 0.00 0.46 0.00 98 1013.0
20260505020805 11 22 0.0 0.0 0.00 0.46 0.00 98 1013.0
20260505010805 11 22 0.0 1.6 0.00 0.46 0.00 98 1014.0
20260505005805 11 22 1.6 4.8 0.00 0.46 0.00 98 1014.0
20260505003805 11 0 0.0 3.2 0.00 0.46 0.00 98 1014.0
20260504232805 12 0 0.0 0.0 0.00 0.46 0.00 98 1014.0
20260504225805 12 0 0.0 3.2 0.00 0.46 0.46 98 1015.0
20260504223805 12 0 0.0 0.0 0.00 0.46 0.46 98 1014.0
20260504222805 12 0 0.0 0.0 0.00 0.46 0.46 98 1013.0
20260504220805 12 0 0.0 0.0 0.00 0.46 0.46 98 1013.0
20260504212805 12 0 0.0 0.0 0.00 0.46 0.46 98 1013.0
20260504211805 12 0 0.0 0.0 0.00 0.46 0.46 98 1013.0
20260504204804 12 0 0.0 0.0 0.00 0.46 0.46 98 1013.0
20260504203804 12 0 0.0 0.0 0.00 0.46 0.46 98 1013.0
20260504202805 12 0 0.0 0.0 0.03 0.46 0.46 98 1013.0
20260504201804 12 0 0.0 0.0 0.03 0.46 0.46 98 1013.0
20260504195806 12 0 0.0 0.0 0.23 0.46 0.46 98 1014.0
20260504193805 12 0 0.0 1.6 0.23 0.46 0.46 98 1015.0
20260504192806 12 0 0.0 3.2 0.23 0.43 0.43 98 1014.0
20260504185806 13 0 0.0 0.0 0.03 0.23 0.23 98 1014.0
20260504183806 13 0 0.0 1.6 0.00 0.20 0.20 98 1014.0
20260504175806 13 315 0.0 0.0 0.03 0.20 0.20 98 1014.0
20260504174806 13 315 0.0 0.0 0.05 0.20 0.20 98 1014.0
20260504173806 13 0 0.0 0.0 0.08 0.20 0.20 98 1013.0
20260504150806 17 0 0.0 0.0 0.00 0.00 0.00 66 1012.0
20260504140805 17 321 0.0 3.2 0.00 0.00 0.00 65 1013.0